Flag for Austria Weather past 2 weeks in Gmünd, Lower Austria, Austria

Now
67 °F

Partly sunny.


Feels Like: 67 °F
Forecast: 41 / 50 °F
Wind: 5 mph from North

Location: Retz

Current Time: May 25, 2015 at 2:47:32 PM

Latest Report: May 25, 2015 at 2:00 PM


Visibility: 14 mi

Pressure: 29.84 "Hg

Humidity: 51%

Dew point: 48 °F

Location of GmündLocation

Historic Weather in Gmünd — Graph

°F

Gmünd temperature yesterday

Maximum temperature yesterday: 58 °F (at 6:00 PM)
Minimum temperature yesterday: 49 °F (at 6:00 AM)
Average temperature yesterday: 53 °F

Past Weeks' High & Low Weather Summary

 TemperatureHumidityPressure
High74 °F (May 12, 5:00 PM)98% (May 23, 7:00 PM)30.41 "Hg (May 23, 7:00 PM)
Low45 °F (May 11, 6:00 AM)26% (May 11, 3:00 PM)29.72 "Hg (May 19, 6:00 AM)
Average58 °F66%30.03 "Hg
* Reported May 10 1:00 PM — May 25 1:00 PM, Gmünd, Weather by CustomWeather, © 2015

Note: Actual official high and low records may vary slightly from our data, if they occured in-between our weather recording intervals... More about our weather records

Advertising

Gmünd weather history for previous 24 hours

 ConditionsComfort  
Time TempWeatherWind HumidityBarometerVisibility
1:00 PM
Mon, May 25
68 °FMild.3 mph50%29.86 "HgN/A
12:00 PM66 °FMild.5 mph56%29.88 "HgN/A
11:00 AM63 °FMild.3 mph65%29.91 "HgN/A
10:00 AM60 °FCool.3 mph74%29.93 "HgN/A
9:00 AM58 °FCool.3 mph77%29.95 "HgN/A
8:00 AM56 °FPassing clouds.3 mph86%29.95 "Hg6 mi
7:00 AM51 °FScattered clouds.3 mph92%29.97 "Hg6 mi
6:00 AM50 °FCool.3 mph91%29.99 "HgN/A
4:00 AM50 °FCool.3 mph94%29.99 "HgN/A
3:00 AM51 °FCool.3 mph94%30.01 "HgN/A
2:00 AM52 °FCool.3 mph94%30.01 "HgN/A
1:00 AM53 °FCool.3 mph94%30.02 "HgN/A
12:00 AM53 °FCool.2 mph92%30.03 "HgN/A
10:00 PM
Sun, May 24
54 °FCool.1 mph89%30.05 "HgN/A
9:00 PM56 °FCool.1 mph87%30.03 "HgN/A
8:00 PM57 °FOvercast.No wind84%30.03 "Hg11 mi
7:00 PM58 °FCool.1 mph85%30.02 "HgN/A
6:00 PM58 °FCool.1 mph83%30.03 "HgN/A
5:00 PM57 °FCool.1 mph84%30.04 "HgN/A
4:00 PM56 °FCool.2 mph88%30.05 "HgN/A
3:00 PM56 °FCool.2 mph91%30.06 "HgN/A
2:00 PM55 °FOvercast.2 mph89%30.06 "Hg7 mi
Weather by CustomWeather, © 2015

See weather overviewHow to use our weather pages